Regional Weather Roundup
Issued by NWS

Home | Current Version | Previous Version | Graphics & Text | Print | Product List | Glossary On
Versions: 1 2 3 4 5 6 7 8 9 10 11 12 13 14 15 16 17 18 19 20 21 22 23 24 25 26 27 28 29 30 31 32 33 34 35 36 37 38 39 40 41 42 43 44 45 46 47 48 49 50
000
ASUS45 KTFX 290419
RWRMT
MONTANA HOURLY WEATHER ROUNDUP
NATIONAL WEATHER SERVICE GREAT FALLS MT
1019 PM MDT THU AUG 28 2014

NOTE: "FAIR" INDICATES FEW OR NO CLOUDS BELOW 12000 FEET WITH NO
SIGNIFICANT WEATHER AND/OR OBSTRUCTIONS TO VISIBILITY.

* THESE STATIONS ARE NOT UNDER NWS QUALITY CONTROL. THEY DO NOT
   REPORT WEATHER SUCH AS PRECIPITATION OR FOG.

MTZ001>007-043-290500-
WEST OF THE DIVIDE
CITY           SKY/WX    TMP DP  RH WIND       PRES   REMARKS
KALISPELL      MOCLDY    66  46  49 N7        29.99R
MISSOULA       MOCLDY    72  41  33 N10       30.01R
BUTTE          PTCLDY    66  36  33 NW7       30.11R
MULLAN PASS    PTCLDY    55  36  49 VRB6      30.15R
* LINCOLN      N/A       68  36  31 S3G8       N/A
* LOOKOUT PASS N/A       58  40  51 NW2        N/A
* POLSON       N/A       67  39  36 W2         N/A
* RONAN APT    CLOUDY    72  41  33 N/A        N/A
* SEELEY LAKE  N/A       65  42  43 NE2G8      N/A
* THOMP F APT  PTCLDY    54  48  80 N11G23     N/A
$$

MTZ008-052>055-290500-
SOUTHWEST MONTANA
CITY           SKY/WX    TMP DP  RH WIND       PRES   REMARKS
BOZEMAN        MOCLDY    66  45  47 N5        30.01R
DILLON         MOCLDY    66  41  40 N7        30.06R
W YELLOWSTONE  LGT RAIN  54  48  80 NE7       30.26R
* THREE FORKS  PTCLDY    72  55  55 N/A        N/A
* BOULDER HILL N/A       65  32  29 NW1        N/A
* MONIDA PASS  N/A       55  45  69 S14        N/A
* RAYNOLDS PAS N/A       57  42  57 N2G17      N/A
* WHITEHALL    N/A       67  38  35 N2G9       N/A
* WISE RIVER   N/A       64  33  31 W9G27      N/A
$$

MTZ009>010-012-014-046-048-049-054-290500-
EAST SLOPES AND CENTRAL MONTANA
CITY           SKY/WX    TMP DP  RH WIND       PRES   REMARKS
CUT BANK       MOCLDY    52  46  80 N17       30.12R
GREAT FALLS    CLOUDY    59  48  67 N17G26    30.06R
HELENA         CLOUDY    73  37  27 W6        29.99R
MALMSTROM AFB  CLOUDY    59  50  72 N18G28    30.07R
* CONRAD       CLOUDY    55  54  96 NW10G18    N/A
* EAST GLACIER N/A       47  45  93 NE22G30    N/A
* MONARCH      N/A       65  33  30 NW11G16    N/A
* PENDROY      N/A       52  50  93 VRB25G35    N/A
* ROGERS PASS  N/A       60  43  54 S6G11      N/A
* SAINT MARY   N/A       48  47  96 NE8G19     N/A
* SWEET GRASS  N/A       50  50 100 N18        N/A
* WHITE SULPH  N/A       65  42  43 NW7        N/A
$$

MTZ011-013-016-021-035-040-045-047-050-051-290500-
NORTH CENTRAL MONTANA
CITY           SKY/WX    TMP DP  RH WIND       PRES   REMARKS
HAVRE          CLOUDY    61  50  67 VRB3      30.00R
LEWISTOWN      MOCLDY    66  45  47 W10       29.94S
* CHINOOK      CLOUDY    61  52  72 N12G22    29.98R
* FORT BENTON  PTCLDY    61  50  67 N13G24    30.03R
* CHESTER      N/A       56  49  77 NE12G21    N/A
* DENTON       N/A       70  42  36 NW20G29    N/A
* GEYSER       N/A       68  41  38 W9         N/A
* JUDITH GAP   N/A       65  45  49 VRB6       N/A
* LOMA         N/A       61  50  67 VRB31G44    N/A
$$

MTZ017>020-022>027-061-062-290500-
NORTHEAST MONTANA
CITY           SKY/WX    TMP DP  RH WIND       PRES   REMARKS
GLASGOW        CLEAR     66  57  73 NE8       29.80F
GLENDIVE       CLEAR     70  54  57 NW9       29.84F
JORDAN         CLEAR     64  57  78 S5        29.83F
SIDNEY         CLEAR     70  52  53 W7        29.80F
WOLF POINT     CLEAR     72  55  55 N6        29.80F
* BEAVER HILL  N/A       73  51  46 N/A        N/A
* CIRCLE       N/A       67  54  63 N/A        N/A
* LINDSAY DVD  N/A       65  51  61 NW9        N/A
* NAVAJO       N/A       65  56  73 N12        N/A
* SACO         N/A       67  58  73 SE2        N/A
$$

MTZ028>042-056>058-290500-
SOUTHCENTRAL AND SOUTHEAST MONTANA
CITY           SKY/WX    TMP DP  RH WIND       PRES   REMARKS
BAKER          CLEAR     64  54  70 CALM      29.88S
BILLINGS       PTCLDY    77  46  33 S6        29.90S
LIVINGSTON     TSTM      72  45  38 SW7       30.00R
MILES CITY     CLEAR     73  48  41 N5        29.85S
* LAUREL APT   MOCLDY    72  46  40 N/A        N/A
* ROUNDUP APT  MOCLDY    72  52  49 N6         N/A
* ALZADA       N/A       66  50  56 E4         N/A
* HYSHAM       N/A       70  42  36 E2         N/A
* LAME DEER    N/A       70  46  42 NE8        N/A
* REED POINT   N/A       72  49  44 S1         N/A
* ROSCOE HILL  N/A       68  37  32 SW8G17     N/A
$$

REGIONAL REPORTS...DAKOTAS
CITY           SKY/WX    TMP DP  RH WIND       PRES   REMARKS
WILLISTON      CLEAR     72  50  46 W12       29.77F
DICKINSON      CLEAR     64  57  78 S9        29.83S
BEACH          N/A       63  59  87 CALM      29.86S
CROSBY         CLEAR     64  63  97 NW8       29.76F
TIOGA          CLEAR     61  61 100 SW7       29.80F
WATFORD CITY   CLEAR     64  54  70 SW6       29.77S
BISMARCK       MOCLDY    64  63  97 SE5       29.84F
GRAND FORKS    CLOUDY    68  64  87 S10       29.85F
FARGO          LGT RAIN  66  64  93 S13       29.85F
BUFFALO SD     CLEAR     66  57  73 S9        29.83F
RAPID CITY     PTCLDY    61  57  87 CALM      29.93F
$$

REGIONAL REPORTS...WYOMING/IDAHO/WASHINGTON
CITY           SKY/WX    TMP DP  RH WIND       PRES   REMARKS
GILLETTE       CLEAR     57  52  83 S7        29.98F
SHERIDAN       CLEAR     57  48  72 SW5       29.96S
CODY           PTCLDY    72  43  35 CALM      30.02R
YELLOWSTONE LA MOCLDY    48  45  89 W7        30.38R
SALMON         PTCLDY    70  45  41 W3        30.00R
MULLAN PASS    PTCLDY    55  36  49 VRB6      30.15S
SAND POINT     PTCLDY    68  50  53 NE14      29.95F
SPOKANE        FAIR      73  43  34 SW12      29.96R
$$

REGIONAL REPORTS...ALBERTA
CITY           SKY/WX    TMP DP  RH WIND       PRES   REMARKS
CALGARY        FAIR      50  45  83 SW5       30.08S
LETHBRIDGE     LGT RAIN  52  50  93 NW6       30.11R
MEDICINE HAT   LGT RAIN  55  54  96 W6        30.05R
EDMONTON       FAIR      45  41  86 S7        29.99R
WATERTON GATE  N/A       46  46 100 E3         N/A
CARDSTON       N/A       48  48 100 NW2        N/A
MILK RIVER     N/A       50  50 100 NW6        N/A
$$

REGIONAL REPORTS...SASKATCHEWAN
CITY           SKY/WX    TMP DP  RH WIND       PRES   REMARKS
SWIFT CURRENT  CLOUDY    55  54  96 N5        29.98R
REGINA         CLOUDY    66  55  68 N8        29.84R
VAL MARIE      N/A       57  55  93 N30G40     N/A
ASSINIBOIA     N/A       59  55  87 NW22G35    N/A
CORONACH       N/A       64  54  70 N10G17     N/A

$$




USA.gov is the U.S. government's official web portal to all federal, state and local government web resources and services.